This is the latest recevied weather packets stored in our database for station/object DG2GGP-11. If no packets are shown the sender has not sent any weather packets the latest 10 day(s).
| Time | Temp. | Humidity | Pressure | Rain* | Wind** | Luminosity | Snow |
|---|---|---|---|---|---|---|---|
| 1777700357 | 7.22° C | 75% | 1023.8 hPa | 0 mm | - | 7 W/m² | - |
| 1777699757 | 6.11° C | 77% | 1023.7 hPa | 0 mm | - | 6 W/m² | - |
| 1777699157 | 5.56° C | 78% | 1023.7 hPa | 0 mm | - | 5 W/m² | - |
| 1777698557 | 5° C | 78% | 1023.6 hPa | 0 mm | - | 4 W/m² | - |
| 1777697957 | 4.44° C | 79% | 1023.6 hPa | 0 mm | - | 3 W/m² | - |
| 1777697357 | 3.89° C | 80% | 1023.7 hPa | 0 mm | - | 2 W/m² | - |
| 1777696757 | 3.33° C | 80% | 1023.7 hPa | 0 mm | - | 2 W/m² | - |
| 1777696160 | 3.33° C | 81% | 1023.7 hPa | 0 mm | - | 1 W/m² | - |
| 1777695557 | 3.33° C | 81% | 1023.7 hPa | 0 mm | - | 0 W/m² | - |
| 1777694957 | 3.33° C | 80% | 1023.7 hPa | 0 mm | - | 0 W/m² | - |
| 1777694357 | 3.33° C | 80% | 1023.7 hPa | 0 mm | - | 0 W/m² | - |
| 1777693757 | 3.33° C | 80% | 1023.8 hPa | 0 mm | - | 0 W/m² | - |
| 1777693157 | 3.33° C | 79% | 1023.7 hPa | 0 mm | - | 0 W/m² | - |
| 1777692557 | 3.89° C | 78% | 1023.7 hPa | 0 mm | - | 0 W/m² | - |
| 1777691957 | 3.89° C | 78% | 1023.8 hPa | 0 mm | - | 0 W/m² | - |
| 1777691357 | 3.33° C | 79% | 1023.8 hPa | 0 mm | - | 0 W/m² | - |
| 1777690757 | 3.89° C | 78% | 1023.8 hPa | 0 mm | - | 0 W/m² | - |
| 1777690157 | 3.89° C | 78% | 1023.9 hPa | 0 mm | - | 0 W/m² | - |
| 1777689557 | 3.89° C | 78% | 1024 hPa | 0 mm | - | 0 W/m² | - |
| 1777688957 | 3.89° C | 78% | 1024 hPa | 0 mm | - | 0 W/m² | - |
| 1777688357 | 3.89° C | 78% | 1024 hPa | 0 mm | - | 0 W/m² | - |
| 1777687757 | 3.89° C | 78% | 1024.1 hPa | 0 mm | - | 0 W/m² | - |
| 1777687157 | 3.89° C | 78% | 1024.1 hPa | 0 mm | - | 0 W/m² | - |
| 1777686557 | 3.89° C | 77% | 1024.2 hPa | 0 mm | - | 0 W/m² | - |
| 1777685957 | 4.44° C | 77% | 1024.2 hPa | 0 mm | - | 0 W/m² | - |
* Rain latest hour (hover to see other rain measurements)
** Current wind speed in m/s (hover to see current wind gust speed)